Weather History for KSTL - June, 2013

Change the Weather History Date:

Wednesday, June 19, 2013

  Actual Average Record
Temperature  
Mean Temperature 77 °F 77 °F  
Max Temperature 87 °F 86 °F 105 °F (1936)
Min Temperature 66 °F 68 °F 52 °F (1935)
Degree Days  
Heating Degree Days 0 0  
Month to date heating degree days 1 3  
Since 1 June heating degree days 1 3  
Since 1 July heating degree days 4488 4533  
Cooling Degree Days 12 12  
Month to date cooling degree days 165 184  
Year to date cooling degree days 376 358  
Since 1 June cooling degree days 165 184  
Growing Degree Days 26 (Base 50)    
Moisture  
Dew Point 61 °F    
Average Humidity 64    
Maximum Humidity 87    
Minimum Humidity 40    
Precipitation  
Precipitation 0.00 in 0.13 in 2.45 in (1928)
Month to date precipitation 2.51 2.82  
Year to date precipitation 26.65 19.19  
Snow  
Snow 0.00 in 0.00 in 0.00 in ()
Month to date snowfall 0.0 0.0  
Since 1 June snowfall 0.0 0.0  
Since 1 July snowfall 27.9 17.7  
Snow Depth 0.00 in    
Sea Level Pressure  
Sea Level Pressure 30.01 in    
Wind  
Wind Speed 4 mph (ENE)    
Max Wind Speed 9 mph    
Max Gust Speed 14 mph    
Visibility 10 miles    
Events      
T = Trace of Precipitation, MM = Missing Value Source: NWS Daily Summary

Daily Weather History Graph

Daily Weather History Graph

Search for Another Location

Airport or City:

Trip Planner

Search our weather history database for the weather conditions in past years. The results will help you decide how hot, cold, wet, or windy it might be!

Date:

Astronomy

Jun. 19, 2013 Rise Set
Actual Time 5:36 AM CDT 8:29 PM CDT
Civil Twilight 5:04 AM CDT 9:01 PM CDT
Nautical Twilight 4:24 AM CDT 9:41 PM CDT
Astronomical Twilight 3:37 AM CDT 10:27 PM CDT
Moon 4:24 PM CDT (6/19) 2:19 AM CDT (6/19)
Length of Visible Light 15h 56m
Length of Day
14h 52m
Waxing Gibbous, 80% of the Moon is Illuminated
Jun 19
Waxing Gibbous
Jun 23
Full
Jun 29
Last Quarter
Jul 8
New
Jul 15
First Quarter

Hourly Weather History & Observations

Time (CDT) Temp. Heat Index Dew Point Humidity Pressure Visibility Wind Dir Wind Speed Gust Speed Precip Events Conditions
12:51 AM 73.0 °F - 60.1 °F 64% 29.96 in 10.0 mi NE 4.6 mph - N/A   Clear
1:51 AM 71.1 °F - 61.0 °F 70% 29.96 in 10.0 mi NNE 4.6 mph - N/A   Clear
2:51 AM 70.0 °F - 62.1 °F 76% 29.97 in 10.0 mi NE 6.9 mph - N/A   Clear
3:51 AM 69.1 °F - 62.1 °F 78% 29.98 in 10.0 mi NE 4.6 mph - N/A   Clear
4:51 AM 68.0 °F - 62.1 °F 81% 29.99 in 10.0 mi NNE 4.6 mph - N/A   Clear
5:51 AM 66.9 °F - 62.1 °F 84% 30.01 in 9.0 mi Calm Calm - N/A   Scattered Clouds
6:51 AM 66.9 °F - 62.1 °F 84% 30.02 in 8.0 mi NE 4.6 mph - N/A   Mostly Cloudy
7:51 AM 69.1 °F - 62.1 °F 78% 30.04 in 10.0 mi Calm Calm - N/A   Mostly Cloudy
8:51 AM 72.0 °F - 63.0 °F 73% 30.05 in 10.0 mi ENE 3.5 mph - N/A   Mostly Cloudy
9:51 AM 77.0 °F - 63.0 °F 62% 30.06 in 10.0 mi Calm Calm - N/A   Mostly Cloudy
10:51 AM 78.1 °F - 63.0 °F 60% 30.05 in 10.0 mi NE 6.9 mph - N/A   Scattered Clouds
11:51 AM 80.1 °F 81.2 °F 62.1 °F 54% 30.05 in 10.0 mi Calm Calm - N/A   Scattered Clouds
12:51 PM 82.0 °F 83.0 °F 62.1 °F 51% 30.04 in 10.0 mi NNE 5.8 mph - N/A   Scattered Clouds
1:51 PM 82.0 °F 82.4 °F 60.1 °F 47% 30.02 in 10.0 mi ESE 4.6 mph - N/A   Scattered Clouds
2:51 PM 84.0 °F 84.5 °F 62.1 °F 47% 30.02 in 10.0 mi Variable 6.9 mph - N/A   Mostly Cloudy
3:51 PM 84.0 °F 84.0 °F 60.1 °F 44% 30.01 in 10.0 mi SSE 4.6 mph - N/A   Mostly Cloudy
4:51 PM 84.9 °F 84.2 °F 57.9 °F 40% 30.01 in 10.0 mi Calm Calm - N/A   Mostly Cloudy
5:51 PM 84.9 °F 84.4 °F 59.0 °F 41% 30.00 in 10.0 mi East 3.5 mph - N/A   Mostly Cloudy
6:51 PM 84.0 °F 83.8 °F 59.0 °F 43% 30.00 in 10.0 mi ENE 5.8 mph - N/A   Mostly Cloudy
7:51 PM 81.0 °F 81.7 °F 61.0 °F 50% 30.00 in 10.0 mi ENE 5.8 mph - N/A   Mostly Cloudy
8:51 PM 81.0 °F 81.6 °F 60.1 °F 49% 30.00 in 10.0 mi ENE 3.5 mph - N/A   Mostly Cloudy
9:51 PM 77.0 °F - 62.1 °F 60% 30.03 in 10.0 mi East 4.6 mph - N/A   Scattered Clouds
10:51 PM 75.9 °F - 63.0 °F 64% 30.03 in 10.0 mi ESE 5.8 mph - N/A   Scattered Clouds
11:51 PM 73.9 °F - 63.0 °F 68% 30.04 in 10.0 mi ESE 4.6 mph - N/A   Scattered Clouds